Back to catalog

STARLINK-37561

AliveCommunicationsVLEO
NORAD 69821·PAYLOAD·🇺🇸 United States

Launched Jul 5, 2026 from Cape Canaveral Space Force Station

Loading…

Next Passes (next 24 hours)

TLE

FreshSource: CelesTrak SupGP

Epoch: Sep 14, 2026, 22:50 UTC

1 69821C 26154C   26257.95187500 -.00013161  00000+0 -38899-3 0  2571
2 69821  53.1585 357.3066 0001072  85.9595 186.3147 15.34384615    17

Track STARLINK-37561 in real time with AllMySat

Download on the App Store